Flag for Hong Kong Weather past 2 weeks in Hong Kong, Hong Kong

Now
82 °F

Passing clouds.


Feels Like: 85 °F
Forecast: 77 / 86 °F
Wind: 3 mph from North

Location: National Airport

Current Time: Oct 21, 2014 at 9:04:51 PM

Latest Report: Oct 21, 2014 at 8:30 PM


Visibility: N/A

Pressure: 29.98 "Hg

Humidity: 62%

Dew point: 68 °F

Location of Hong KongLocation

Historic Weather in Hong Kong — Graph

°F

Hong Kong temperature yesterday

Maximum temperature yesterday: 88 °F (at 1:30 PM)
Minimum temperature yesterday: 79 °F (at 12:00 AM)
Average temperature yesterday: 81 °F

Past Weeks' High & Low Weather Summary

 TemperatureHumidityPressure
High90 °F (Oct 21, 3:30 PM)79% (Oct 20, 7:00 AM)30.09 "Hg (Oct 20, 7:00 AM)
Low73 °F (Oct 15, 4:00 AM)35% (Oct 7, 1:00 PM)29.77 "Hg (Oct 9, 3:00 PM)
Average81 °F56%29.96 "Hg
* Reported Oct 6 8:00 PM — Oct 21 8:00 PM, Hong Kong, Weather by CustomWeather, © 2014

Note: Actual official high and low records may vary slightly from our data, if they occured in-between our weather recording intervals... More about our weather records

Advertising

Hong Kong weather history for previous 24 hours

 ConditionsComfort  
Time TempWeatherWind HumidityBarometerVisibility
8:00 PM
Oct 21
84 °FPassing clouds.5 mph58%29.95 "HgN/A
7:30 PM84 °FPassing clouds.3 mph58%29.95 "HgN/A
7:00 PM84 °FPassing clouds.7 mph58%29.95 "HgN/A
6:30 PM86 °FPassing clouds.6 mph55%29.95 "HgN/A
6:00 PM86 °FPassing clouds.6 mph59%29.95 "HgN/A
5:30 PM88 °FPassing clouds.8 mph52%29.95 "HgN/A
5:00 PM88 °FPassing clouds.8 mph49%29.95 "HgN/A
4:30 PM88 °FPassing clouds.8 mph46%29.95 "HgN/A
4:00 PM88 °FPassing clouds.8 mph46%29.95 "HgN/A
3:30 PM90 °FPassing clouds.7 mph41%29.95 "HgN/A
3:00 PM88 °FPassing clouds.6 mph46%29.95 "HgN/A
2:30 PM88 °FPassing clouds.7 mph52%29.95 "HgN/A
2:00 PM88 °FPassing clouds.7 mph49%29.95 "Hg4 mi
1:30 PM88 °FPassing clouds.7 mph49%29.98 "Hg4 mi
1:00 PM88 °FPassing clouds.6 mph52%29.98 "Hg3 mi
12:30 PM86 °FPassing clouds.7 mph62%30.01 "Hg3 mi
12:00 PM86 °FPassing clouds.7 mph66%30.01 "Hg3 mi
11:00 AM86 °FHaze.6 mph62%30.04 "Hg3 mi
10:30 AM86 °FHaze.3 mph62%30.04 "Hg3 mi
10:00 AM84 °FClear.3 mph66%30.04 "Hg3 mi
9:30 AM84 °FClear.2 mph66%30.04 "Hg4 mi
9:00 AM82 °FPassing clouds.3 mph62%30.04 "HgN/A
8:30 AM82 °FSunny.3 mph62%30.04 "Hg10 mi
8:00 AM82 °FSunny.3 mph62%30.01 "Hg10 mi
7:30 AM81 °FSunny.2 mph70%30.01 "Hg10 mi
7:00 AM79 °FSunny.3 mph65%30.01 "Hg10 mi
6:30 AM77 °FSunny.3 mph69%29.98 "Hg10 mi
6:00 AM77 °FClear.5 mph69%29.98 "Hg10 mi
5:30 AM77 °FPassing clouds.5 mph69%29.98 "HgN/A
5:00 AM77 °FPassing clouds.3 mph69%29.95 "HgN/A
4:30 AM77 °FPassing clouds.5 mph69%29.95 "HgN/A
4:00 AM79 °FClear.3 mph70%29.95 "Hg10 mi
3:30 AM79 °FPassing clouds.3 mph65%29.95 "HgN/A
3:00 AM77 °FClear.3 mph69%29.95 "Hg10 mi
2:30 AM77 °FPassing clouds.3 mph69%29.95 "HgN/A
2:00 AM77 °FPassing clouds.6 mph74%29.95 "HgN/A
1:30 AM79 °FClear.8 mph70%29.98 "Hg10 mi
1:00 AM81 °FClear.8 mph70%29.98 "Hg10 mi
12:30 AM81 °FPassing clouds.7 mph70%29.98 "HgN/A
12:00 AM81 °FClear.9 mph70%29.98 "Hg10 mi
11:30 PM
Oct 20
81 °FClear.9 mph70%29.98 "Hg10 mi
11:00 PM81 °FPassing clouds.8 mph70%29.98 "HgN/A
10:30 PM81 °FPassing clouds.12 mph70%29.98 "HgN/A
10:00 PM81 °FPassing clouds.7 mph66%29.98 "HgN/A
9:30 PM81 °FPassing clouds.5 mph70%29.98 "HgN/A
9:00 PM81 °FPassing clouds.9 mph70%29.98 "HgN/A
Weather by CustomWeather, © 2014

See weather overviewHow to use our weather pages